Starlink 31089

operational
NORAD ID: 58610 Int'l Des: 2023-200 Owner: SPXS Country: US Constellation: starlink
LEOCIRCULAR

关于 Starlink 31089

正在加载描述...

实时位置

正在加载3D地球...

即将过境

高度历史

Altitude vs Time

uPlot chart will show altitude changes over time

两行轨道根数

1 58610U 23200X 25340.91754498 .00006339 00000-0 48395-3 0 9991
2 58610 43.0041 314.7478 0001205 274.9256 85.1448 15.02532568109637
Epoch: Dec 6, 2025 • Age: 20 hours

当前状态

高度 563.0 km
速度 7.59 km/s
星下点 43.13°N, 57.78°E
发射日期 Dec 19, 2023
运行时间 1.9 years
类型 internet

技术详情

分类 Payload
质量 730.00 kg
干质量 700.00 kg
总质量 730.00 kg
长度 0.30 m
直径 4.10 m
跨度 29.00 m
形状 Box + pan
制造商 SPXS
平台类型 Starlink V2M
阶段状态 In Orbit
所有者/国家 SPXS/US

大型星座

Loading constellations...